When you browse on this site, cookies collect data to enhance your experience and personalize the content and advertising you see.
Visit our Privacy Policy to learn more. By continuing to use the site, you agree to this use of cookies and data.
  • en Belgique
  • Liste des pays
  • À 7 jours
  • Température de l'eau
  • Carte météo
  • Widgets météo
  • user-avatar
    Se connecter

    Météo par heure à Mochudi

    Ce jour, 5 Juin, Vendredi

    Heure Température Précipitation Vent Pression Humidité
    00:00 +14°C° 0 mm 2 m/s 684 mmHg 48%
    01:00 +13°C° 0 mm 2 m/s 684 mmHg 52%
    02:00 +12°C° 0 mm 2 m/s 684 mmHg 56%
    03:00 +12°C° 0 mm 1 m/s 684 mmHg 61%
    04:00 +11°C° 0 mm 1 m/s 684 mmHg 66%
    05:00 +11°C° 0 mm 1 m/s 684 mmHg 72%
    06:00 +11°C° 0 mm 1 m/s 684 mmHg 72%
    07:00 +12°C° 0 mm 1 m/s 685 mmHg 71%
    08:00 +12°C° 0 mm 2 m/s 685 mmHg 71%
    09:00 +15°C° 0 mm 2 m/s 685 mmHg 63%
    10:00 +17°C° 0 mm 2 m/s 686 mmHg 55%
    11:00 +20°C° 0 mm 3 m/s 686 mmHg 47%
    12:00 +21°C° 0 mm 3 m/s 686 mmHg 41%
    13:00 +23°C° 0 mm 2 m/s 685 mmHg 36%
    14:00 +24°C° 0 mm 2 m/s 685 mmHg 30%
    15:00 +23°C° 0 mm 2 m/s 685 mmHg 31%
    16:00 +23°C° 0 mm 2 m/s 684 mmHg 31%
    17:00 +22°C° 0 mm 1 m/s 684 mmHg 31%
    18:00 +20°C° 0 mm 1 m/s 684 mmHg 35%
    19:00 +16°C° 0 mm 0 m/s 684 mmHg 40%
    20:00 +14°C° 0 mm 0 m/s 684 mmHg 44%
    21:00 +14°C° 0 mm 0 m/s 684 mmHg 45%
    22:00 +15°C° 0 mm 1 m/s 684 mmHg 46%
    23:00 +14°C° 0 mm 1 m/s 684 mmHg 48%

    Demain, 6 Juin, Samedi

    Heure Température Précipitation Vent Pression Humidité
    00:00 +14°C° 0 mm 1 m/s 684 mmHg 49%
    01:00 +13°C° 0 mm 1 m/s 684 mmHg 51%
    02:00 +13°C° 0 mm 1 m/s 684 mmHg 53%
    03:00 +12°C° 0 mm 1 m/s 684 mmHg 56%
    04:00 +11°C° 0 mm 1 m/s 684 mmHg 60%
    05:00 +10°C° 0 mm 2 m/s 684 mmHg 64%
    06:00 +11°C° 0 mm 1 m/s 685 mmHg 68%
    07:00 +11°C° 0 mm 1 m/s 685 mmHg 73%
    08:00 +11°C° 0 mm 1 m/s 685 mmHg 78%
    09:00 +14°C° 0 mm 2 m/s 686 mmHg 67%
    10:00 +17°C° 0 mm 2 m/s 686 mmHg 55%
    11:00 +20°C° 0 mm 2 m/s 687 mmHg 44%
    12:00 +21°C° 0 mm 2 m/s 686 mmHg 39%
    13:00 +23°C° 0 mm 2 m/s 686 mmHg 33%
    14:00 +25°C° 0 mm 2 m/s 685 mmHg 27%
    15:00 +24°C° 0 mm 1 m/s 685 mmHg 28%
    16:00 +23°C° 0 mm 1 m/s 685 mmHg 29%
    17:00 +23°C° 0 mm 1 m/s 685 mmHg 29%
    18:00 +21°C° 0 mm 1 m/s 685 mmHg 34%
    19:00 +19°C° 0 mm 1 m/s 685 mmHg 39%
    20:00 +16°C° 0 mm 1 m/s 685 mmHg 44%
    21:00 +15°C° 0 mm 1 m/s 685 mmHg 46%
    22:00 +15°C° 0 mm 1 m/s 685 mmHg 48%
    23:00 +14°C° 0 mm 1 m/s 685 mmHg 49%

    Après-demain, 7 Juin, Dimanche

    Heure Température Précipitation Vent Pression Humidité
    00:00 +14°C° 0 mm 1 m/s 685 mmHg 51%
    01:00 +13°C° 0 mm 1 m/s 685 mmHg 53%
    02:00 +11°C° 0 mm 0 m/s 684 mmHg 55%
    03:00 +12°C° 0 mm 1 m/s 684 mmHg 58%
    04:00 +11°C° 0 mm 1 m/s 684 mmHg 60%
    05:00 +11°C° 0 mm 1 m/s 684 mmHg 63%
    06:00 +11°C° 0 mm 1 m/s 685 mmHg 61%
    07:00 +11°C° 0 mm 1 m/s 685 mmHg 60%
    08:00 +12°C° 0 mm 1 m/s 686 mmHg 59%
    09:00 +15°C° 0 mm 1 m/s 686 mmHg 51%
    10:00 +18°C° 0 mm 1 m/s 686 mmHg 44%
    11:00 +21°C° 0 mm 1 m/s 687 mmHg 36%
    12:00 +22°C° 0 mm 1 m/s 686 mmHg 32%
    13:00 +24°C° 0 mm 1 m/s 686 mmHg 29%
    14:00 +25°C° 0 mm 1 m/s 685 mmHg 25%
    15:00 +24°C° 0 mm 1 m/s 685 mmHg 25%
    16:00 +23°C° 0 mm 1 m/s 684 mmHg 26%
    17:00 +23°C° 0 mm 1 m/s 684 mmHg 27%
    18:00 +21°C° 0 mm 1 m/s 684 mmHg 31%
    19:00 +19°C° 0 mm 1 m/s 684 mmHg 35%
    20:00 +16°C° 0 mm 1 m/s 684 mmHg 39%
    21:00 +15°C° 0 mm 1 m/s 684 mmHg 41%
    22:00 +15°C° 0 mm 1 m/s 684 mmHg 42%
    23:00 +14°C° 0 mm 1 m/s 684 mmHg 43%

    8 Juin, Lundi

    Heure Température Précipitation Vent Pression Humidité
    00:00 +14°C° 0 mm 1 m/s 684 mmHg 45%
    01:00 +13°C° 0 mm 1 m/s 683 mmHg 47%
    02:00 +13°C° 0 mm 1 m/s 683 mmHg 48%
    03:00 +12°C° 0 mm 1 m/s 683 mmHg 50%
    04:00 +11°C° 0 mm 1 m/s 683 mmHg 53%
    05:00 +11°C° 0 mm 1 m/s 683 mmHg 55%
    06:00 +11°C° 0 mm 1 m/s 683 mmHg 53%
    07:00 +12°C° 0 mm 1 m/s 684 mmHg 52%
    08:00 +12°C° 0 mm 1 m/s 684 mmHg 50%
    09:00 +15°C° 0 mm 1 m/s 685 mmHg 43%
    10:00 +19°C° 0 mm 1 m/s 685 mmHg 36%
    11:00 +22°C° 0 mm 1 m/s 685 mmHg 30%
    12:00 +23°C° 0 mm 1 m/s 685 mmHg 26%
    13:00 +24°C° 0 mm 2 m/s 684 mmHg 23%
    14:00 +25°C° 0 mm 2 m/s 684 mmHg 19%
    15:00 +24°C° 0 mm 2 m/s 683 mmHg 20%
    16:00 +24°C° 0 mm 2 m/s 683 mmHg 21%
    17:00 +23°C° 0 mm 1 m/s 683 mmHg 22%
    18:00 +21°C° 0 mm 1 m/s 683 mmHg 26%
    19:00 +19°C° 0 mm 1 m/s 683 mmHg 29%
    20:00 +15°C° 0 mm 0 m/s 682 mmHg 33%
    21:00 +14°C° 0 mm 0 m/s 683 mmHg 35%
    22:00 +14°C° 0 mm 0 m/s 683 mmHg 36%
    23:00 +13°C° 0 mm 0 m/s 683 mmHg 38%

    9 Juin, Mardi

    Heure Température Précipitation Vent Pression Humidité
    00:00 +13°C° 0 mm 0 m/s 683 mmHg 39%
    01:00 +12°C° 0 mm 0 m/s 682 mmHg 41%
    02:00 +13°C° 0 mm 1 m/s 682 mmHg 42%
    03:00 +12°C° 0 mm 1 m/s 682 mmHg 44%
    04:00 +12°C° 0 mm 1 m/s 682 mmHg 47%
    05:00 +11°C° 0 mm 1 m/s 682 mmHg 49%
    06:00 +12°C° 0 mm 1 m/s 682 mmHg 49%
    07:00 +12°C° 0 mm 1 m/s 683 mmHg 49%
    08:00 +13°C° 0 mm 1 m/s 684 mmHg 49%
    09:00 +15°C° 0 mm 1 m/s 684 mmHg 45%
    10:00 +18°C° 0 mm 2 m/s 684 mmHg 40%
    11:00 +21°C° 0 mm 3 m/s 685 mmHg 35%
    12:00 +22°C° 0 mm 3 m/s 684 mmHg 31%
    13:00 +25°C° 0 mm 3 m/s 683 mmHg 26%
    14:00 +26°C° 0 mm 3 m/s 683 mmHg 22%
    15:00 +25°C° 0 mm 3 m/s 682 mmHg 22%
    16:00 +24°C° 0 mm 2 m/s 682 mmHg 23%
    17:00 +24°C° 0 mm 2 m/s 681 mmHg 24%
    18:00 +21°C° 0 mm 2 m/s 681 mmHg 28%
    19:00 +19°C° 0 mm 2 m/s 681 mmHg 32%
    20:00 +17°C° 0 mm 2 m/s 682 mmHg 36%
    21:00 +16°C° 0 mm 2 m/s 682 mmHg 37%
    22:00 +15°C° 0 mm 2 m/s 682 mmHg 39%
    23:00 +14°C° 0 mm 2 m/s 682 mmHg 41%

    10 Juin, Mercredi

    Heure Température Précipitation Vent Pression Humidité
    00:00 +14°C° 0 mm 2 m/s 681 mmHg 46%
    01:00 +13°C° 0 mm 2 m/s 681 mmHg 51%
    02:00 +12°C° 0 mm 1 m/s 681 mmHg 57%
    03:00 +12°C° 0 mm 1 m/s 681 mmHg 61%
    04:00 +11°C° 0 mm 1 m/s 681 mmHg 65%
    05:00 +11°C° 0 mm 1 m/s 681 mmHg 69%
    06:00 +12°C° 0 mm 1 m/s 681 mmHg 70%
    07:00 +12°C° 0 mm 1 m/s 681 mmHg 71%
    08:00 +12°C° 0 mm 1 m/s 682 mmHg 72%
    09:00 +16°C° 0 mm 2 m/s 682 mmHg 62%
    10:00 +19°C° 0 mm 3 m/s 683 mmHg 51%
    11:00 +22°C° 0 mm 3 m/s 683 mmHg 41%
    12:00 +25°C° 0 mm 3 m/s 682 mmHg 34%
    13:00 +26°C° 0 mm 3 m/s 682 mmHg 28%
    14:00 +28°C° 0 mm 3 m/s 681 mmHg 21%
    15:00 +27°C° 0 mm 2 m/s 681 mmHg 21%
    16:00 +26°C° 0 mm 2 m/s 680 mmHg 21%
    17:00 +26°C° 0 mm 1 m/s 680 mmHg 21%
    18:00 +24°C° 0 mm 1 m/s 680 mmHg 24%
    19:00 +22°C° 0 mm 1 m/s 679 mmHg 27%
    20:00 +19°C° 0 mm 2 m/s 679 mmHg 29%
    21:00 +19°C° 0 mm 1 m/s 679 mmHg 31%
    22:00 +18°C° 0 mm 1 m/s 679 mmHg 32%
    23:00 +18°C° 0 mm 1 m/s 679 mmHg 33%
    Voir plus